Willimantic, CT

2:11 AM EDT on July 25, 2017 (GMT -0400)
Windham

Weather History for KIJD - March, 2013

Change the Weather History Date:

Sunday, March 10, 2013

  Actual Average Record
Temperature  
Mean Temperature 34 °F -  
Max Temperature 48 °F 43 °F 73 °F (2016)
Min Temperature 19 °F 20 °F -4 °F (1984)
Degree Days  
Heating Degree Days 32    
Moisture  
Dew Point 24 °F    
Average Humidity 69    
Maximum Humidity 92    
Minimum Humidity 39    
Precipitation  
Precipitation 0.00 in - - ()
Sea Level Pressure  
Sea Level Pressure 30.36 in    
Wind  
Wind Speed 2 mph (South)    
Max Wind Speed 10 mph    
Max Gust Speed -    
Visibility 9 miles    
Events      
Averages and records for this station are not official NWS values.
T = Trace of Precipitation, MM = Missing Value Source: NWS Daily Summary

Daily Weather History Graph

Daily Weather History Graph

Search for Another Location

Airport or City:

Trip Planner

Search our weather history database for the weather conditions in past years. The results will help you decide how hot, cold, wet, or windy it might be!

Date:

Astronomy

Mar. 10, 2013 Rise Set
Actual Time 7:08 AM EDT 6:49 PM EDT
Civil Twilight 6:40 AM EDT 7:17 PM EDT
Nautical Twilight 6:08 AM EDT 7:49 PM EDT
Astronomical Twilight 5:36 AM EDT 8:22 PM EDT
Moon 6:07 AM EDT (3/10) 5:54 PM EDT (3/10)
Length of Visible Light 12h 36m
Length of Day
11h 41m
Waning Crescent, 2% of the Moon is Illuminated
Mar 10
Waning Crescent
Mar 11
New
Mar 19
First Quarter
Mar 27
Full
Apr 3
Last Quarter

Hourly Weather History & Observations

Time (EDT) Temp. Windchill Dew Point Humidity Pressure Visibility Wind Dir Wind Speed Gust Speed Precip Events Conditions
12:52 AM 24.1 °F - 21.0 °F 88% 30.37 in 9.0 mi Calm Calm - N/A   Clear
1:52 AM 24.1 °F - 19.9 °F 84% 30.37 in 6.0 mi Calm Calm - N/A   Clear
3:52 AM 21.9 °F - 18.0 °F 85% 30.36 in 8.0 mi Calm Calm - N/A   Clear
4:52 AM 23.0 °F - 19.9 °F 88% 30.37 in 6.0 mi Calm Calm - N/A   Clear
5:52 AM 21.0 °F - 17.1 °F 85% 30.37 in 7.0 mi Calm Calm - N/A   Clear
6:50 AM 19.4 °F - 15.8 °F 86% 30.38 in 8.0 mi Calm Calm - N/A   Mostly Cloudy
6:52 AM 19.0 °F - 14.0 °F 81% 30.39 in 8.0 mi Calm Calm - N/A   Mostly Cloudy
7:02 AM 19.4 °F - 12.2 °F 74% 30.38 in 8.0 mi Calm Calm - N/A   Scattered Clouds
8:52 AM 26.1 °F - 24.1 °F 92% 30.40 in 7.0 mi Calm Calm - N/A   Clear
9:52 AM 33.1 °F - 26.1 °F 75% 30.40 in 10.0 mi Calm Calm - N/A   Clear
10:52 AM 41.0 °F 39.0 °F 28.0 °F 60% 30.40 in 10.0 mi NE 3.5 mph - N/A   Clear
11:52 AM 43.0 °F - 27.0 °F 53% 30.38 in 10.0 mi Calm Calm - N/A   Clear
12:52 PM 46.0 °F - 26.1 °F 46% 30.37 in 10.0 mi Calm Calm - N/A   Clear
1:52 PM 46.0 °F - 26.1 °F 46% 30.35 in 10.0 mi Calm Calm - N/A   Clear
2:52 PM 48.0 °F - 26.1 °F 42% 30.33 in 10.0 mi SSW 4.6 mph - N/A   Clear
3:52 PM 48.9 °F - 25.0 °F 39% 30.32 in 10.0 mi South 3.5 mph - N/A   Clear
4:52 PM 48.9 °F - 25.0 °F 39% 30.31 in 10.0 mi SW 5.8 mph - N/A   Clear
5:52 PM 46.9 °F - 30.0 °F 52% 30.31 in 10.0 mi South 10.4 mph - N/A   Clear
6:52 PM 42.1 °F 36.6 °F 30.0 °F 62% 30.33 in 10.0 mi SSE 9.2 mph - N/A   Clear
7:52 PM 39.0 °F 33.4 °F 30.0 °F 70% 30.35 in 10.0 mi South 8.1 mph - N/A   Clear
8:52 PM 37.0 °F 31.0 °F 28.9 °F 73% 30.34 in 10.0 mi South 8.1 mph - N/A   Clear
9:52 PM 37.0 °F 33.3 °F 28.9 °F 73% 30.35 in 10.0 mi SSE 4.6 mph - N/A   Clear
10:52 PM 36.0 °F 31.1 °F 30.0 °F 79% 30.34 in 10.0 mi South 5.8 mph - N/A   Scattered Clouds
12:01 AM 35.6 °F 32.8 °F 30.2 °F 81% 30.32 in 9.0 mi South 3.5 mph - N/A   Mostly Cloudy
12:52 AM 36.0 °F 32.1 °F 30.0 °F 79% 30.34 in 9.0 mi SW 4.6 mph - N/A   Overcast